Location: Rumah Long Bangan
(2.8362°N, 113.7519°E)
Time: 05:03:28
(UTC+00:00)

Cosmos 44 Rocket - Pass Details

Date: 24 October 2021
Orbit: 644 x 746 km, 65.1° (Epoch: 28 November)

Event Time Altitude Azimuth Distance (km) Brightness Sun altitude
Rises 12:10:02 0° 211° (SSW) 3,121 7.2 -30.1°
Reaches altitude 10° 12:12:25 10° 215° (SW) 2,213 6.4 -30.7°
Enters shadow 12:16:27 47° 256° (WSW) 972 4.3 -31.7°
